Regional Weather Roundup
Issued by NWS

Home | Current Version | Previous Version | Text Only | Print | Product List | Glossary Off
Versions: 1 2 3 4 5 6 7 8 9 10 11 12 13 14 15 16 17 18 19 20 21 22 23 24 25 26 27 28 29 30 31 32 33 34 35 36 37 38 39 40 41 42 43 44 45 46 47 48 49 50

718
ASUS43 KOAX 290910
RWRNE

WEATHER ROUNDUP FOR NEBRASKA
NATIONAL WEATHER SERVICE OMAHA NE
400 AM CDT SUN MAY 29 2016

NOTES: SATELLITE DATA IS BEING USED TO AUGMENT CLOUD COVER ABOVE
       12000 FEET.
       "FAIR" INDICATES FEW OR NO CLOUDS BELOW 12,000 FEET WITH NO
       SIGNIFICANT WEATHER AND/OR OBSTRUCTIONS TO VISIBILITY.

  * THESE STATIONS DO NOT REPORT WEATHER SUCH AS RAIN...SNOW OR FOG.

NEZ001>004-019>022-054>056-291000-
NEBRASKA PANHANDLE

CITY           SKY/WX    TMP DP  RH WIND       PRES   REMARKS
SCOTTSBLUFF    CLEAR     47  43  86 E8        30.08S
ALLIANCE       CLEAR     39  39 100 W5        30.08S
CHADRON        PTCLDY    39  38  96 W6        30.07S WCI  35
KIMBALL        CLOUDY    45  43  93 W9        30.13S
SIDNEY         CLEAR     43  41  93 W6        30.10F
$$

NEZ057>060-069>072-079>082-291000-
SOUTHWEST NEBRASKA

CITY           SKY/WX    TMP DP  RH WIND       PRES   REMARKS
NORTH PLATTE   CLEAR     48  47  96 NW5       30.07R
IMPERIAL       CLEAR     52  49  89 W7        30.09R
LEXINGTON      CLOUDY    54  51  90 N5        30.05R
MCCOOK         CLOUDY    58  50  75 S5        30.05R
OGALLALA       CLEAR     48  46  93 CALM      30.08R
$$

NEZ005>010-023>029-035>040-094-291000-
NORTH CENTRAL NEBRASKA

CITY           SKY/WX    TMP DP  RH WIND       PRES   REMARKS
VALENTINE      CLEAR     50  47  89 SW6       30.04S
AINSWORTH      CLEAR     55  54  96 W5        30.04S
BROKEN BOW     CLEAR     53  51  93 CALM      30.03R
O`NEILL        CLOUDY    60  57  91 SW5       30.02R
ORD            PTCLDY    54  53  97 SW5       30.01R
THEDFORD       CLEAR     50  49  95 W6        30.07R
$$

NEZ041-046>049-061>064-073>077-083>087-291000-
SOUTH CENTRAL NEBRASKA

CITY           SKY/WX    TMP DP  RH WIND       PRES   REMARKS
GRAND ISLAND   CLOUDY    58  55  90 S8        30.02S
AURORA         PTCLDY    58  56  92 CALM      30.02R
HASTINGS       PTCLDY    58  54  86 CALM      30.02S
HEBRON         CLEAR     57  55  94 CALM      30.01F
HOLDREGE       CLOUDY    57  51  79 SE3       30.02S
KEARNEY *      PTCLDY    59  48  67 NW3       30.03R
YORK           MOCLDY    59  57  94 CALM      30.03R
$$

NEZ011>018-030>034-042>045-291000-
NORTHEAST NEBRASKA

CITY           SKY/WX    TMP DP  RH WIND       PRES   REMARKS
NORFOLK        CLOUDY    53  52  96 CALM      30.00S
ALBION         PTCLDY    55  51  87 CALM      30.01S
BLAIR          CLEAR     56  55  94 S3        30.00R
FREMONT        CLEAR     55  54  98 CALM      30.00S
TEKAMAH        CLEAR     55  52  89 W7        29.99R
WAYNE          PTCLDY    53  52  97 CALM      30.00R
$$

NEZ050>053-065>068-078-088>093-291000-
SOUTHEAST NEBRASKA

CITY           SKY/WX    TMP DP  RH WIND       PRES   REMARKS
LINCOLN        CLEAR     59  55  87 CALM      30.02S
OMAHA EPPLEY   CLEAR     56  53  90 SE7       30.00R
BEATRICE       CLEAR     57  56  94 CALM      30.01S
FALLS CITY     CLEAR     62  58  86 W5        30.00F
NEBRASKA CITY  CLEAR     60  56  88 CALM      30.01S
PLATTSMOUTH    CLEAR     60  57  91 CALM      30.01S
$$

NEZ044-045-051>053-067-291000-
OMAHA AREA

CITY           SKY/WX    TMP DP  RH WIND       PRES   REMARKS
OMAHA EPPLEY   CLEAR     56  53  90 SE7       30.00R
BLAIR          CLEAR     56  55  94 S3        30.00R
FREMONT        CLEAR     55  54  98 CALM      30.00S
MILLARD        CLEAR     56  55  95 CALM      30.00S
OFFUTT AFB     CLEAR     54  54 100 CALM      30.00R
PLATTSMOUTH    CLEAR     60  57  91 CALM      30.01S
WAHOO          FAIR      56  54  94 CALM      30.00S
$$




USA.gov is the U.S. government's official web portal to all federal, state and local government web resources and services.